カタログに戻る

SL-3 R/B

運用中PO
NORAD 8027·ROCKET BODY·🇷🇺 Russia

打ち上げ Jul 11, 1975 から Plesetsk Cosmodrome

Loading…

次のパス (今後24時間)

TLE

最新Source: Space-Track

元期: Sep 14, 2026, 09:14 UTC

1 08027U 75064B   26257.38473787  .00000102  00000-0  51750-4 0  9993
2 08027  81.2961  42.8350 0059714 114.6266 246.1140 14.07788449627128

AllMySatでSL-3 R/Bをリアルタイム追跡

Download on the App Store